Home   Weather   Provo   Past weeks
Flag for USA

Past Weather in Provo, Utah, USA — Yesterday and Last 2 Weeks

Now
83 °F

Scattered clouds.


Feels Like: 81 °F
Forecast: 89 / 63 °F
Wind: 12 mph from Southwest

Location: Provo Municipal

Current Time: Jun 26, 2019 at 8:25:28 pm

Latest Report: Jun 26, 2019 at 6:56 pm


Visibility: 10 mi

Pressure: 29.75 "Hg (25.42 "Hg at 1386m altitude)

Humidity: 30%

Dew Point: 48 °F

Location of ProvoLocation

Past Weather in Provo — Graph

°F

Provo Temperature Yesterday

Maximum temperature yesterday: 90 °F (at 3:56 pm)
Minimum temperature yesterday: 57 °F (at 5:56 am)
Average temperature yesterday: 74 °F

High & Low Weather Summary for the Past Weeks

 TemperatureHumidityPressure
High90 °F (Jun 25, 3:56 pm)81% (Jun 18, 6:56 am)30.14 "Hg (Jun 18, 6:56 am)
Low44 °F (Jun 23, 6:56 am)12% (Jun 25, 2:56 pm)29.50 "Hg (Jun 20, 4:56 pm)
Average67 °F45%29.89 "Hg
* Reported Jun 11 6:56 pm — Jun 26 6:56 pm, Provo. Weather by CustomWeather, © 2019

Note: Actual official high and low records may vary slightly from our data, if they occured in-between our weather recording intervals... More about our weather records

Advertising

Provo Weather History for the Previous 24 Hours

Scroll right to see more
 ConditionsComfort  
Time TempWeatherWind HumidityBarometerVisibility
6:56 pm
Wed, Jun 26
83 °FScattered clouds.12 mph30%29.75 "Hg10 mi
5:56 pm87 °FSunny.8 mph22%29.76 "Hg10 mi
4:56 pm89 °FPartly sunny.10 mph17%29.76 "Hg10 mi
3:56 pm85 °FSunny.10 mph20%29.77 "Hg10 mi
2:56 pm85 °FScattered clouds.5 mph18%29.78 "Hg10 mi
1:56 pm84 °FScattered clouds.5 mph13%29.78 "Hg10 mi
12:56 pm83 °FSunny.3 mph12%29.81 "Hg10 mi
11:56 am82 °FScattered clouds.7 mph17%29.82 "Hg10 mi
10:56 am83 °FSunny.13 mph15%29.80 "Hg10 mi
9:56 am78 °FScattered clouds.7 mph20%29.83 "Hg10 mi
8:56 am72 °FScattered clouds.7 mph29%29.83 "Hg10 mi
7:56 am65 °FSunny.3 mph42%29.82 "Hg10 mi
6:56 am60 °FPassing clouds.9 mph47%29.81 "Hg10 mi
5:56 am54 °FClear.6 mph62%29.82 "Hg10 mi
4:56 am58 °FClear.5 mph56%29.80 "Hg10 mi
3:56 am60 °FClear.No wind49%29.77 "Hg10 mi
2:56 am62 °FClear.No wind38%29.77 "Hg10 mi
1:56 am70 °FClear.No wind29%29.74 "Hg10 mi
12:56 am66 °FClear.10 mph43%29.75 "Hg10 mi
11:56 pm
Tue, Jun 25
70 °FClear.3 mph30%29.75 "Hg10 mi
10:56 pm74 °FClear.8 mph28%29.73 "Hg10 mi
9:56 pm74 °FClear.8 mph29%29.70 "Hg8 mi
8:56 pm75 °FSunny.9 mph34%29.69 "Hg10 mi
Weather by CustomWeather, © 2019

See weather overview